Simultaneous Nadir Overpasses (SNOs) Predictions

Prediction of SNOs between AQUA and METOP-B Satellite Orbit:

Table of predicted SNOs for the next 14.0 days since TLE Epoch: 8/31/2024
Index Date (AQUA) Time (AQUA) Lat,Lon (AQUA) SZA (AQUA ) Date (METOP-B) Time (METOP-B) Lat,Lon (METOP-B) SZA (METOP-B ) Distance(km) Time Diff (sec)
1 08/31/2024 14:47:38 -76.12, 135.97 112.26 08/31/2024 14:46:26 -76.15, 135.95 112.23 2.68 72
2 08/31/2024 15:37:01 76.17, -56.51 67.80 08/31/2024 15:37:05 76.20, -56.54 67.83 3.42 4
3 08/31/2024 16:26:30 -76.59, 109.75 111.75 08/31/2024 16:27:37 -76.63, 112.33 111.74 66.69 67
4 09/03/2024 06:07:47 76.20, 85.76 68.78 09/03/2024 06:07:23 76.20, 85.85 68.78 2.44 24
5 09/03/2024 06:57:08 -76.23,-106.69 111.17 09/03/2024 06:58:04 -76.22,-106.74 111.19 1.83 56
6 09/05/2024 20:38:27 76.20,-131.87 69.75 09/05/2024 20:37:40 76.17,-131.82 69.72 2.99 47
7 09/05/2024 21:27:48 -76.24, 35.68 110.21 09/05/2024 21:28:20 -76.25, 35.76 110.20 2.46 32
8 09/08/2024 11:09:03 76.17, 10.61 70.69 09/08/2024 11:07:57 76.18, 10.61 70.70 0.75 66
9 09/08/2024 11:58:24 -76.21, 178.16 109.26 09/08/2024 11:58:38 -76.21, 178.03 109.26 3.43 14
10 09/11/2024 01:39:30 75.93, 153.82 71.43 09/11/2024 01:38:21 75.84, 151.88 71.36 53.25 69
11 09/11/2024 02:28:57 -76.25, -39.57 108.23 09/11/2024 02:28:54 -76.24, -39.44 108.24 3.58 3
12 09/11/2024 03:18:19 76.27, 128.03 71.81 09/11/2024 03:19:32 76.33, 128.19 71.86 7.65 73
13 09/13/2024 16:59:24 -76.22, 102.97 107.27 09/13/2024 16:59:11 -76.21, 102.86 107.28 3.08 13



Historial Predications of SNOs between AQUA and METOP-B
